IK5WWP Weather Reports


Display with metric or nautical units.
time (UTC)temp
F
wind
direction
speed
MPH
gust
MPH
rain 1hr
in
rain 24hr
in
rain mn
in
humidity
%
barometer
mb
20260906104827 92 137 1.0 4.0 0.00 0.00 0.00 50 1018.7
20260906103027 91 139 0.0 4.0 0.00 0.00 0.00 52 1018.9
20260906102127 91 154 1.0 4.0 0.00 0.00 0.00 54 1019.1
20260906101227 91 129 2.0 4.0 0.00 0.00 0.00 53 1019.3
20260906100328 90 153 1.0 4.0 0.00 0.00 0.00 55 1019.2
20260906095428 90 150 1.0 4.0 0.00 0.00 0.00 55 1019.2
20260906093628 88 120 1.0 4.0 0.00 0.00 0.00 58 1019.4
20260906092727 88 149 1.0 4.0 0.00 0.00 0.00 57 1019.3
20260906091828 87 131 2.0 4.0 0.00 0.00 0.00 58 1019.4
20260906090927 88 109 2.0 4.0 0.00 0.00 0.00 57 1019.6
20260906090028 87 149 1.0 2.0 0.00 0.00 0.00 60 1019.5
20260906085128 86 145 2.0 4.0 0.00 0.00 0.00 61 1019.6
20260906084227 85 141 1.0 4.0 0.00 0.00 0.00 62 1019.5
20260906083327 84 116 2.0 4.0 0.00 0.00 0.00 63 1019.2
20260906082427 83 113 0.0 2.0 0.00 0.00 0.00 66 1019.5
20260906075728 79 29 0.0 2.0 0.00 0.00 0.00 72 1019.2
20260906074827 78 90 0.0 2.0 0.00 0.00 0.00 74 1019.3
20260906073927 77 90 1.0 2.0 0.00 0.00 0.00 74 1019.4
20260906073028 77 90 0.0 2.0 0.00 0.00 0.00 75 1019.3
20260906072128 76 0 0.0 0.0 0.00 0.00 0.00 77 1019.1
20260906070328 74 0 0.0 0.0 0.00 0.00 0.00 78 1019.0
20260906065428 74 0 0.0 0.0 0.00 0.00 0.00 80 1019.1
20260906064528 72 357 0.0 2.0 0.00 0.00 0.00 81 1019.1
20260906063628 71 46 0.0 2.0 0.00 0.00 0.00 83 1018.9
20260906062728 71 45 0.0 2.0 0.00 0.00 0.00 84 1018.9
20260906061828 70 0 0.0 0.0 0.00 0.00 0.00 85 1019.0
20260906060928 69 0 0.0 0.0 0.00 0.00 0.00 86 1018.9
20260906060028 69 0 0.0 0.0 0.00 0.00 0.00 87 1018.7
20260906054228 69 68 0.0 2.0 0.00 0.00 0.00 88 1018.6
20260906053328 68 53 0.0 2.0 0.00 0.00 0.00 88 1018.4
20260906052428 68 45 0.0 2.0 0.00 0.00 0.00 88 1018.3
20260906051528 69 68 0.0 2.0 0.00 0.00 0.00 88 1018.2
20260906050628 68 68 0.0 2.0 0.00 0.00 0.00 88 1018.4
20260906045728 68 46 0.0 2.0 0.00 0.00 0.00 88 1018.5
20260906044828 68 46 0.0 2.0 0.00 0.00 0.00 88 1018.5
20260906043028 69 0 0.0 0.0 0.00 0.00 0.00 88 1018.3
20260906042128 69 0 0.0 0.0 0.00 0.00 0.00 88 1018.1
20260906041228 69 0 0.0 0.0 0.00 0.00 0.00 88 1018.3
20260906040328 69 0 0.0 0.0 0.00 0.00 0.00 87 1017.9
20260906035428 69 46 0.0 2.0 0.00 0.00 0.00 87 1018.4
20260906033628 69 0 0.0 0.0 0.00 0.00 0.00 87 1018.0
20260906032728 69 0 0.0 0.0 0.00 0.00 0.00 87 1018.0
20260906031828 69 0 0.0 0.0 0.00 0.00 0.00 87 1018.1
20260906030028 69 0 0.0 0.0 0.00 0.00 0.00 87 1017.9
20260906025128 69 0 0.0 0.0 0.00 0.00 0.00 86 1017.9
20260906024228 69 45 0.0 2.0 0.00 0.00 0.00 86 1018.0
20260906023328 70 45 0.0 2.0 0.00 0.00 0.00 86 1017.9
20260906022428 70 45 0.0 2.0 0.00 0.00 0.00 86 1018.2
20260906021528 70 0 0.0 0.0 0.00 0.00 0.00 86 1018.2
20260906020628 70 0 0.0 0.0 0.00 0.00 0.00 86 1018.0
20260906014828 70 46 0.0 2.0 0.00 0.00 0.00 86 1018.0
20260906013928 70 45 0.0 2.0 0.00 0.00 0.00 85 1018.0
20260906013028 70 45 0.0 2.0 0.00 0.00 0.00 85 1017.9
20260906012128 70 46 0.0 2.0 0.00 0.00 0.00 85 1017.9
20260906011228 71 0 0.0 0.0 0.00 0.00 0.00 85 1017.9
20260906010328 71 46 0.0 2.0 0.00 0.00 0.00 85 1017.9
20260906005428 71 45 0.0 2.0 0.00 0.00 0.00 84 1017.7
20260906004528 71 45 0.0 2.0 0.00 0.00 0.00 84 1017.7
20260906003628 71 46 0.0 2.0 0.00 0.00 0.00 84 1017.7
20260906001828 71 45 0.0 2.0 0.00 0.00 0.00 83 1017.9
20260906000928 72 45 0.0 2.0 0.00 0.00 0.00 83 1017.9
20260906000028 72 46 0.0 2.0 0.00 0.00 0.00 82 1018.0
20260905235128 73 0 0.0 0.0 0.00 0.00 0.00 81 1017.6
20260905234228 73 41 0.0 2.0 0.00 0.00 0.00 81 1017.7
20260905233328 73 45 0.0 2.0 0.00 0.00 0.00 81 1017.8
20260905232429 73 46 1.0 2.0 0.00 0.00 0.00 81 1017.8
20260905230628 73 37 0.0 2.0 0.00 0.00 0.00 81 1018.0
20260905225728 73 22 0.0 2.0 0.00 0.00 0.00 81 1018.0
20260905224828 73 33 2.0 4.0 0.00 0.00 0.00 81 1018.1
20260905222128 73 45 1.0 2.0 0.00 0.00 0.00 81 1017.9
20260905221228 74 28 1.0 2.0 0.00 0.00 0.00 80 1018.0
20260905214518 74 26 0.0 2.0 0.00 0.00 0.00 79 1017.8
20260905212718 74 19 2.0 2.0 0.00 0.00 0.00 79 1017.7
20260905211818 74 22 1.0 2.0 0.00 0.00 0.00 80 1017.6
20260905210918 74 23 1.0 2.0 0.00 0.00 0.00 80 1017.5
20260905210018 74 30 1.0 2.0 0.00 0.00 0.00 80 1017.7
20260905205118 74 42 0.0 2.0 0.00 0.00 0.00 80 1017.5
20260905204218 74 42 1.0 2.0 0.00 0.00 0.00 80 1017.5
20260905203318 74 45 1.0 2.0 0.00 0.00 0.00 80 1017.4
20260905202418 75 41 1.0 2.0 0.00 0.00 0.00 79 1017.4
20260905201519 75 43 1.0 2.0 0.00 0.00 0.00 79 1017.3
20260905194818 76 48 1.0 2.0 0.00 0.00 0.00 77 1017.4
20260905193918 77 52 0.0 2.0 0.00 0.00 0.00 76 1017.1
20260905193018 77 45 0.0 2.0 0.00 0.00 0.00 76 1017.2
20260905192118 76 45 0.0 2.0 0.00 0.00 0.00 76 1017.2
20260905191218 77 42 0.0 2.0 0.00 0.00 0.00 76 1016.9
20260905190318 77 36 0.0 2.0 0.00 0.00 0.00 76 1016.8
20260905185418 77 46 1.0 2.0 0.00 0.00 0.00 75 1016.8
20260905184518 78 48 1.0 2.0 0.00 0.00 0.00 75 1016.6
20260905183618 79 45 0.0 2.0 0.00 0.00 0.00 73 1016.4
20260905182718 80 64 0.0 2.0 0.00 0.00 0.00 69 1016.5
20260905181818 80 69 1.0 2.0 0.00 0.00 0.00 67 1016.5
20260905180918 80 68 0.0 2.0 0.00 0.00 0.00 65 1016.4
20260905180018 81 76 1.0 2.0 0.00 0.00 0.00 64 1016.4
20260905175118 81 63 0.0 2.0 0.00 0.00 0.00 64 1016.3
20260905174218 81 82 0.0 2.0 0.00 0.00 0.00 65 1016.1
20260905173318 81 111 0.0 4.0 0.00 0.00 0.00 64 1016.2
20260905171518 82 89 0.0 2.0 0.00 0.00 0.00 65 1016.1
20260905170618 83 112 1.0 2.0 0.00 0.00 0.00 65 1016.2
20260905165718 83 88 0.0 4.0 0.00 0.00 0.00 66 1016.0
20260905164818 83 135 2.0 4.0 0.00 0.00 0.00 66 1015.9
20260905163918 84 132 0.0 4.0 0.00 0.00 0.00 65 1016.1
20260905162118 85 98 0.0 4.0 0.00 0.00 0.00 63 1015.8
20260905161218 85 87 1.0 6.0 0.00 0.00 0.00 61 1016.1
20260905160318 85 60 2.0 6.0 0.00 0.00 0.00 61 1016.1
20260905155418 85 66 3.0 6.0 0.00 0.00 0.00 60 1015.9
20260905154518 86 47 3.0 6.0 0.00 0.00 0.00 60 1015.7
20260905153618 87 69 2.0 4.0 0.00 0.00 0.00 57 1015.9
20260905152718 87 71 1.0 4.0 0.00 0.00 0.00 58 1015.8
20260905151818 88 117 2.0 4.0 0.00 0.00 0.00 57 1015.7
20260905150918 87 111 2.0 6.0 0.00 0.00 0.00 57 1015.9
20260905150018 88 90 2.0 4.0 0.00 0.00 0.00 54 1015.7
20260905145119 89 93 1.0 6.0 0.00 0.00 0.00 54 1015.7
20260905144218 89 102 1.0 4.0 0.00 0.00 0.00 53 1015.7
20260905143318 89 107 1.0 4.0 0.00 0.00 0.00 53 1016.0
20260905142418 89 59 0.0 4.0 0.00 0.00 0.00 54 1016.0
20260905141519 89 69 2.0 4.0 0.00 0.00 0.00 53 1015.9
20260905140618 89 97 1.0 4.0 0.00 0.00 0.00 53 1016.0
20260905135718 89 127 2.0 7.0 0.00 0.00 0.00 54 1016.1
20260905133918 90 85 1.0 4.0 0.00 0.00 0.00 52 1016.2
20260905133018 89 48 2.0 6.0 0.00 0.00 0.00 51 1016.4
20260905132118 89 73 3.0 6.0 0.00 0.00 0.00 52 1016.4
20260905131218 91 85 1.0 4.0 0.00 0.00 0.00 50 1016.6
20260905130318 92 110 1.0 4.0 0.00 0.00 0.00 49 1016.7
20260905125418 91 96 2.0 6.0 0.00 0.00 0.00 50 1016.7
20260905123619 90 53 1.0 9.0 0.00 0.00 0.00 50 1016.8
20260905122718 90 62 2.0 4.0 0.00 0.00 0.00 52 1017.1
20260905121818 92 86 1.0 8.0 0.00 0.00 0.00 49 1017.0
20260905120918 91 63 2.0 6.0 0.00 0.00 0.00 50 1017.0
20260905120018 89 39 3.0 7.0 0.00 0.00 0.00 52 1016.9
20260905115118 90 62 2.0 4.0 0.00 0.00 0.00 52 1017.4
20260905114218 90 85 2.0 4.0 0.00 0.00 0.00 54 1017.4
20260905113318 92 58 1.0 4.0 0.00 0.00 0.00 53 1017.2
20260905110618 89 64 1.0 2.0 0.00 0.00 0.00 56 1017.2
20260905105718 88 39 1.0 4.0 0.00 0.00 0.00 58 1017.4